CloseHelpProblem

Burley Spudman

07/29/06


PlBibNameRepresenting Age DivisionLapsFinal TimeTime BackPaceAdjustmentSwimT1BikeT2Run
11000Michael MAMALESSalt Lake City UT USA06 M 40 - 44102:03:40.66+00:00:00.0000:15:41.22000:01:08.35001:02:54.35000:00:55.60000:43:01.140
21006Steve ORROCKAlpine UT USA06 M 40 - 44102:05:05.80+00:01:25.1400:16:31.86000:01:48.48001:02:30.50000:01:43.83000:42:31.130
31010Alan SMILEYDraper UT USA06 M 40 - 44102:08:03.07+00:04:22.4100:16:19.21000:02:14.73001:05:29.21000:01:23.86000:42:36.060
41009Adam DEWAALSLC UT USA06 M 40 - 44102:09:34.87+00:05:54.2100:18:52.38000:01:48.85001:04:08.58000:44:45.060
51067Shawn WARDStansbury Park UT USA06 M 40 - 44102:21:03.74+00:17:23.0800:19:25.62000:02:18.32001:06:29.69000:01:16.12000:51:33.990
61057Jay MEYERSyracuse UT USA06 M 40 - 44102:22:31.28+00:18:50.6200:14:38.49000:03:02.62001:08:18.04000:01:43.98000:54:48.150
71047Temp PATTERSONBurley ID USA06 M 40 - 44102:24:44.35+00:21:03.6900:18:24.19000:02:25.18001:06:33.01000:01:26.48000:55:55.490
8996Chris KENNEYDraper UT USA06 M 40 - 44102:24:53.28+00:21:12.6200:17:42.73000:02:05.95001:07:34.52000:01:12.00000:56:18.080
9511Daniel HARPERProvo UT USA06 M 40 - 44102:26:39.82+00:22:59.1600:17:33.55000:03:29.05001:10:58.76000:02:49.49000:51:48.970
10995Tom STOCKHAMHolladay UT USA06 M 40 - 44102:26:41.15+00:23:00.4900:16:14.37000:02:45.78001:08:19.67000:01:36.33000:57:45.000
111064Gregg GREERDraper UT USA06 M 40 - 44102:27:23.82+00:23:43.1600:20:20.31000:02:34.03001:08:13.09000:02:11.08000:54:05.310
121038Brad MCKINNONAmerican Fork UT USA06 M 40 - 44102:27:46.30+00:24:05.6400:15:33.58000:02:59.73001:16:11.57000:02:08.15000:50:53.270
131046Glen ALLENBurley ID USA06 M 40 - 44102:28:35.23+00:24:54.5700:19:28.43000:01:45.43001:08:27.97000:01:28.86000:57:24.540
141011Todd SMITHHeyburn ID USA06 M 40 - 44102:29:40.72+00:26:00.0600:22:08.36000:03:26.90001:09:00.18000:02:50.42000:52:14.860
151015Phillip GOOLDDraper UT USA06 M 40 - 44102:29:50.31+00:26:09.6500:18:57.89000:04:13.27001:12:59.28000:01:53.60000:51:46.270
161002Mark DUBOISSandy UT USA06 M 40 - 44102:31:32.24+00:27:51.5800:19:22.93000:05:07.77001:08:19.41000:03:29.22000:55:12.910
171251Russell LARSENNorth Salt Lake UT USA06 M 40 - 44102:32:29.48+00:28:48.8200:19:30.63000:02:16.08001:12:15.53000:01:26.01000:57:01.230
181059Matthew CHENEYPetersboro UT USA06 M 40 - 44102:33:01.33+00:29:20.6700:20:35.70000:04:31.92001:15:59.08000:02:29.10000:49:25.530
191060Brent THOMPSONLogandale NV USA06 M 40 - 44102:34:27.56+00:30:46.9000:27:05.90000:02:54.10001:07:12.60000:01:31.72000:55:43.240
20999Scott GLENNStansbury Park UT USA06 M 40 - 44102:34:40.94+00:31:00.2800:19:31.75000:02:46.03001:10:10.73000:02:17.72000:59:54.710
211028Michael SHELTONPleasant Grove UT USA06 M 40 - 44102:35:32.20+00:31:51.5400:22:45.83000:03:40.34001:14:18.03000:02:26.28000:52:21.720
22998Ian SPENCERRiverton UT USA06 M 40 - 44102:36:07.20+00:32:26.5400:19:02.38000:05:07.89001:18:35.16000:03:33.70000:49:48.070
231041Mark ROYLANCEFruit Heights UT USA06 M 40 - 44102:36:50.89+00:33:10.2300:20:07.91000:04:53.14001:12:33.11000:02:45.07000:56:31.660
24808Nate ALDERSalt Lake City UT USA06 M 40 - 44102:37:45.55+00:34:04.8900:09:14.07000:04:05.39001:16:57.20000:03:17.34001:04:11.550
251054Matthew NOORDASalt Lake CIty UT USA06 M 40 - 44102:39:58.20+00:36:17.5400:20:25.06000:03:00.14001:15:14.15000:02:25.68000:58:53.170
261023Maurice WATTSSandy UT USA06 M 40 - 44102:40:42.04+00:37:01.3800:24:44.25000:05:04.12001:17:13.05000:01:53.74000:51:46.880
271065Paul KORTHWest Jordan UT USA06 M 40 - 44102:41:20.00+00:37:39.3400:18:37.11000:04:06.69001:19:51.03000:02:16.76000:56:28.410
28994Brent CHILDERSEagle ID USA06 M 40 - 44102:42:16.43+00:38:35.7700:20:45.62000:02:34.42001:10:43.56000:02:36.81001:05:36.020
291003Rob ANDRAHighland UT USA06 M 40 - 44102:42:38.06+00:38:57.4000:22:59.05000:03:30.15001:15:55.14000:01:51.90000:58:21.820
301072Dale CRANNEYMidway UT USA06 M 40 - 44102:42:41.78+00:39:01.1200:19:09.75000:05:18.93001:14:06.10001:04:07.000
311012Scott HARDYAlpine UT USA06 M 40 - 44102:42:59.49+00:39:18.8300:21:23.73000:04:09.19001:21:55.88000:01:32.46000:53:58.230
321035Steve TAYLORdraper UT USA06 M 40 - 44102:43:54.75+00:40:14.0900:20:20.10000:03:16.77001:14:44.54001:05:33.340
331036Jim ANDERSONSandy UT USA06 M 40 - 44102:43:55.12+00:40:14.4600:21:11.04000:03:27.49001:14:09.81000:03:06.86001:01:59.920
341053Mark KELLERSalt Lake City UT USA06 M 40 - 44102:44:47.06+00:41:06.4000:20:10.37000:04:01.69001:13:24.29000:02:14.56001:04:56.150
351063Craig FRAMEEagle ID USA06 M 40 - 44102:45:34.02+00:41:53.3600:18:40.99000:04:20.83001:15:13.62000:03:01.14001:04:17.440
361005Brian ROBINSNorth Salt Lake UT USA06 M 40 - 44102:47:32.89+00:43:52.2300:24:47.62000:03:48.01001:24:45.78000:01:12.52000:52:58.960
371040Steve POLINGIdaho Falls ID USA06 M 40 - 44102:47:51.25+00:44:10.5900:21:06.65000:03:27.44001:14:58.38000:02:49.24001:05:29.540
381052Bradley WILLIAMSTwin Falls ID USA06 M 40 - 44102:48:21.87+00:44:41.2100:16:30.89000:04:22.16001:28:46.13000:02:53.09000:55:49.600
391019Charles WALKERPleasant Grove UT USA06 M 40 - 44102:49:12.46+00:45:31.8000:21:40.59000:03:14.30001:16:18.98000:02:19.22001:05:39.370
401039Dominic BRIALehi UT USA06 M 40 - 44102:49:34.33+00:45:53.6700:20:42.73000:04:59.39001:11:27.89000:01:52.50001:10:31.820
41990Craig WARDSLC UT USA06 M 40 - 44102:50:04.43+00:46:23.7700:19:17.01000:04:45.73001:16:59.69000:02:52.95001:06:09.050
421056Cory FROGLEYSouth Jordan UT USA06 M 40 - 44102:50:56.43+00:47:15.7700:18:39.76000:04:47.79001:15:12.39000:03:14.40001:09:02.090
431055Kary BURNSDraper UT USA06 M 40 - 44102:50:56.78+00:47:16.1200:19:13.60000:04:10.46001:15:29.28000:03:31.32001:08:32.120
44997R THOMPSONSalt Lake City UT USA06 M 40 - 44102:51:10.76+00:47:30.1000:22:01.02000:03:51.73001:22:49.38000:02:56.95000:59:31.680
451007Bryan PARKSouth Jordan UT USA06 M 40 - 44102:55:21.34+00:51:40.6800:20:49.93000:04:57.83001:13:56.41000:04:27.53001:11:09.640
461042Dennis STONEMANBurley ID USA06 M 40 - 44102:56:34.86+00:52:54.2000:22:20.20000:03:44.64001:25:30.47000:02:00.82001:02:58.730
471008Kevin HALVERSONRupert ID USA06 M 40 - 44102:58:55.30+00:55:14.6400:25:56.04000:03:07.89001:12:26.23000:02:42.12001:14:43.020
481020Reed DEMORDAUNTEagle ID USA06 M 40 - 44102:59:14.49+00:55:33.8300:20:51.45000:04:12.18001:20:22.67000:03:36.19001:10:12.000
49991Michael HUNTERProvo UT USA06 M 40 - 44102:59:58.79+00:56:18.1300:22:40.79000:07:50.99001:25:24.41000:02:11.02001:01:51.580
501043Glade GENTRYDeclo ID USA06 M 40 - 44103:00:14.09+00:56:33.4300:21:51.55000:02:50.97001:15:39.71000:01:58.68001:17:53.180
511049Andy BIBBEagle ID USA06 M 40 - 44103:01:24.36+00:57:43.7000:24:07.32000:05:05.66001:19:30.03000:03:30.37001:09:10.980
521045Joe HUSTONBentonville AR USA06 M 40 - 44103:02:30.55+00:58:49.8900:18:15.88000:06:41.17001:20:23.07000:03:28.18001:13:42.250
531034Richard MATHESONLindon UT USA06 M 40 - 44103:03:28.00+00:59:47.3400:21:49.77000:06:04.95001:18:45.48000:03:11.01001:13:36.790
541022Scott FROGLEYDraper UT USA06 M 40 - 44103:03:59.28+01:00:18.6200:19:39.24000:03:47.49001:15:15.11000:03:10.93001:22:06.510
551013Frank ROSBACHsouth jordan UT USA06 M 40 - 44103:04:43.49+01:01:02.8300:17:05.73000:06:26.60001:20:08.94000:02:09.08001:18:53.140
561068Alan NIELSONIndependence MO USA06 M 40 - 44103:06:27.61+01:02:46.9500:24:25.05000:04:44.48001:21:34.71000:03:19.88001:12:23.490
571071Doug JACKSONProvo UT USA06 M 40 - 44103:09:00.88+01:05:20.2200:20:28.76000:05:00.20001:31:35.57000:02:22.86001:09:33.490
581191Dan RAMOSSalt Lake City UT USA06 M 40 - 44103:10:12.15+01:06:31.4900:35:21.76000:04:38.99001:15:14.42000:03:00.03001:11:56.950
591037Kevin ZOLLINGERdraper UT USA06 M 40 - 44103:26:52.84+01:23:12.1800:26:06.13000:06:22.51001:22:25.04000:03:55.43001:28:03.730
60992David WARDSpokane WA USA06 M 40 - 44103:47:43.11+01:44:02.4500:27:40.29000:08:23.56001:31:24.89000:06:04.52001:34:09.850
1016Dan FORBESDraper UT USA06 M 40 - 440DNF00:20:18.96000:03:11.50001:18:25.30000:06:55.29000:09:43.920
1061Dale AGUIRREDraper UT USA06 M 40 - 440DNS
1032Doug ANDERSONDraper UT USA06 M 40 - 440DNS
1029Jerry COOKLehi UT USA06 M 40 - 440DNS
1070Bob ELLEFSENSalt Lake City UT USA06 M 40 - 440DNS
1058Kurt FLYGAREAlpine UT USA06 M 40 - 440DNS
1004David GUETIGHighlands Ranch CO USA06 M 40 - 440DNS
1026Cliff HANKSBurley ID USA06 M 40 - 440DNS
1021Seamus HANNIGANProvo UT USA06 M 40 - 440DNS
1017Keith HANSENCedar Hills UT USA06 M 40 - 440DNS
1066David KURZSalt Lake City UT USA06 M 40 - 440DNS
1044Steve LINDSLEYAlpine UT USA06 M 40 - 440DNS
1050Steve MADSENRedding CA USA06 M 40 - 440DNS
1048Ted PAULSENDraper UT USA06 M 40 - 440DNS
1069Anthony PERKINSRexburg ID USA06 M 40 - 440DNS
1001David PRUETZRiverton UT USA06 M 40 - 440DNS
1018Paul SHIRLEYBountiful UT USA06 M 40 - 440DNS
1030Thierry SORHAITZLindon UT USA06 M 40 - 440DNS
1051David TAYLORSalt Lake City UT USA06 M 40 - 440DNS
1033Ron VANWAGENENEagle ID USA06 M 40 - 440DNS
993Christopher CARDINETTwin Falls ID USA06 M 40 - 440DQ00:19:53.77000:02:49.12000:41:30.400